Total_Precipitation_Accumulation
0.03 0.05 0.10 0.10 0.12 0.14 0.17 0.22 0.27 0.38 0.31 0.30 0.45 0.71 0.83 0.83 0.85 1.00 1.18 1.18 1.21 1.33 1.71 2.20 2.73 3.22 3.89 4.84 5.84 6.31 6.20 5.62 5.08 4.64 4.25 4.01 3.71 3.45 3.32 3.01 2.64 2.59 2.58 2.60
0.05 0.07 0.06 0.07 0.08 0.12 0.17 0.24 0.28 0.36 0.29 0.33 0.49 0.78 0.96 1.04 1.10 1.04 1.10 1.21 1.15 1.33 1.78 2.30 2.90 3.28 3.61 4.16 4.95 5.36 5.13 4.56 3.89 3.59 3.51 3.47 3.43 3.07 2.84 2.75 2.71 2.42 2.45 2.52
0.05 0.06 0.05 0.05 0.06 0.12 0.17 0.22 0.27 0.34 0.30 0.40 0.55 1.03 1.31 1.28 1.04 0.85 0.77 0.91 0.95 1.08 1.58 2.31 2.87 3.15 3.41 3.62 3.61 3.79 3.76 3.36 3.06 2.95 2.94 2.99 3.17 2.94 2.64 2.55 2.51 2.28 2.20 2.18
0.04 0.04 0.04 0.05 0.06 0.11 0.17 0.14 0.16 0.22 0.34 0.56 0.64 1.43 1.70 1.40 1.16 0.94 0.79 0.77 0.85 1.02 1.44 2.18 2.49 2.61 2.66 2.72 2.52 2.55 2.70 2.62 2.62 2.55 2.55 2.47 2.36 2.36 2.26 2.26 2.22 2.19 2.07 2.02
0.05 0.04 0.04 0.05 0.06 0.11 0.16 0.12 0.14 0.22 0.37 0.58 0.82 1.34 1.79 1.55 1.34 1.02 0.77 0.73 0.87 0.91 1.14 1.48 1.60 1.73 1.79 1.82 1.84 2.04 2.37 2.49 2.42 2.36 2.49 2.52 2.24 2.11 2.04 2.08 2.20 2.15 2.04 1.93
0.06 0.06 0.05 0.05 0.07 0.09 0.13 0.16 0.22 0.37 0.58 1.03 1.08 1.25 1.69 1.50 1.19 0.84 0.69 0.68 0.62 0.66 0.84 1.03 1.12 1.20 1.26 1.29 1.39 1.63 2.10 2.33 2.23 2.19 2.23 2.21 2.17 2.15 2.07 2.00 2.06 2.02 1.95 1.96
0.11 0.10 0.10 0.09 0.10 0.12 0.12 0.18 0.46 0.90 1.37 1.52 0.98 1.15 1.52 1.14 0.83 0.63 0.51 0.52 0.55 0.67 0.76 0.89 1.09 1.14 1.07 1.04 1.15 1.33 1.67 1.82 1.80 1.88 2.01 2.09 2.16 2.13 1.98 1.91 1.85 1.81 1.67 1.75
0.16 0.18 0.14 0.10 0.08 0.11 0.15 0.17 0.35 0.65 0.80 0.96 0.93 1.40 1.53 0.90 0.66 0.55 0.48 0.46 0.57 0.66 0.66 0.73 0.88 0.89 0.87 0.93 0.99 1.12 1.29 1.37 1.47 1.59 1.79 1.97 1.99 1.95 1.90 2.02 1.88 1.73 1.54 1.50
0.08 0.09 0.08 0.07 0.07 0.09 0.13 0.14 0.16 0.23 0.35 0.70 1.10 1.37 1.25 0.83 0.58 0.50 0.46 0.42 0.52 0.53 0.50 0.56 0.67 0.72 0.76 0.92 0.99 1.02 1.12 1.22 1.33 1.43 1.69 1.85 1.85 1.78 1.82 1.91 1.82 1.64 1.65 1.56
0.04 0.05 0.07 0.07 0.08 0.10 0.11 0.12 0.13 0.18 0.37 0.68 1.11 1.49 1.41 1.06 0.75 0.64 0.50 0.41 0.46 0.47 0.46 0.54 0.59 0.68 0.68 0.70 0.87 0.97 1.03 1.19 1.35 1.43 1.48 1.51 1.64 1.61 1.59 1.54 1.52 1.60 1.64 1.61
0.04 0.04 0.05 0.07 0.10 0.13 0.12 0.11 0.12 0.14 0.22 0.48 0.96 1.24 0.92 0.79 0.63 0.62 0.57 0.52 0.51 0.54 0.56 0.56 0.64 0.65 0.63 0.63 0.78 0.91 0.99 1.09 1.19 1.20 1.24 1.34 1.41 1.39 1.35 1.35 1.33 1.45 1.50 1.54
0.04 0.06 0.06 0.10 0.12 0.11 0.10 0.09 0.11 0.15 0.19 0.26 0.57 0.79 0.53 0.55 0.52 0.57 0.61 0.63 0.67 0.72 0.72 0.71 0.74 0.70 0.71 0.73 0.77 0.86 0.86 0.91 0.98 1.03 1.08 1.13 1.26 1.27 1.26 1.29 1.43 1.50 1.49 1.44
0.05 0.06 0.08 0.20 0.26 0.19 0.11 0.09 0.12 0.13 0.15 0.20 0.48 0.74 0.52 0.51 0.60 0.64 0.63 0.71 0.74 0.67 0.72 0.88 0.88 0.74 0.74 0.76 0.78 0.80 0.78 0.83 0.89 0.93 0.95 1.01 1.15 1.32 1.39 1.42 1.47 1.57 1.58 1.53
0.06 0.06 0.07 0.20 0.28 0.26 0.20 0.16 0.16 0.16 0.17 0.20 0.31 0.53 0.50 0.47 0.59 0.72 0.67 0.68 0.73 0.70 0.71 0.88 0.97 0.77 0.68 0.69 0.71 0.73 0.72 0.70 0.71 0.85 0.99 1.06 1.24 1.45 1.55 1.57 1.59 1.60 1.62 1.61
0.07 0.07 0.06 0.07 0.14 0.20 0.22 0.18 0.17 0.14 0.14 0.20 0.29 0.44 0.56 0.66 0.67 0.64 0.66 0.71 0.68 0.73 0.74 0.74 0.79 0.72 0.69 0.69 0.69 0.70 0.72 0.74 0.76 0.94 1.10 1.27 1.46 1.54 1.60 1.67 1.69 1.74 1.77 1.68
0.10 0.10 0.08 0.08 0.14 0.15 0.16 0.20 0.15 0.11 0.11 0.17 0.28 0.47 0.59 0.58 0.68 0.71 0.65 0.63 0.68 0.76 0.80 0.89 0.89 0.85 0.88 0.84 0.82 0.83 0.85 0.92 1.05 1.20 1.34 1.43 1.53 1.62 1.58 1.58 1.61 1.77 1.83 1.89
0.18 0.18 0.18 0.17 0.19 0.21 0.24 0.22 0.16 0.14 0.17 0.23 0.32 0.47 0.58 0.66 0.79 0.88 0.88 0.79 0.80 0.91 0.94 1.05 1.11 1.07 1.08 1.03 1.03 1.14 1.12 1.20 1.37 1.52 1.68 1.71 1.68 1.73 1.73 1.78 1.81 1.83 1.95 2.07
0.27 0.29 0.26 0.24 0.30 0.42 0.33 0.25 0.22 0.22 0.24 0.28 0.39 0.54 0.67 0.79 0.84 0.98 1.06 1.02 0.94 0.91 0.98 1.10 1.18 1.16 1.11 1.12 1.18 1.42 1.54 1.54 1.66 1.76 1.88 1.97 2.01 2.09 2.16 2.25 2.27 2.30 2.34 2.38
0.29 0.39 0.40 0.39 0.47 0.48 0.41 0.35 0.31 0.33 0.45 0.45 0.56 0.80 0.93 0.95 1.13 1.31 1.21 1.08 1.06 1.10 1.09 1.25 1.24 1.21 1.22 1.38 1.45 1.52 1.63 1.66 1.84 2.03 2.17 2.25 2.31 2.35 2.39 2.42 2.54 2.68 2.82 2.85
0.35 0.38 0.49 0.47 0.57 0.66 0.62 0.49 0.45 0.57 1.07 0.91 0.89 0.96 0.95 1.05 1.48 1.52 1.16 1.03 1.10 1.14 1.24 1.38 1.42 1.37 1.44 1.70 1.77 1.85 1.93 1.99 2.07 2.18 2.35 2.54 2.66 2.69 2.68 2.75 2.90 3.07 3.24 3.26
0.62 0.63 0.58 0.56 0.65 0.73 0.67 0.56 0.63 1.19 1.64 1.34 1.22 1.17 1.19 1.38 1.44 1.42 1.26 1.11 1.06 1.11 1.21 1.37 1.42 1.42 1.49 1.70 1.90 2.17 2.32 2.37 2.37 2.43 2.56 2.69 2.80 2.94 3.00 3.10 3.19 3.35 3.48 3.46
0.91 0.95 0.92 0.89 1.04 1.11 0.74 0.74 1.13 1.47 1.30 1.41 1.57 1.59 1.52 1.51 1.33 1.25 1.22 1.25 1.22 1.20 1.24 1.32 1.44 1.51 1.62 1.76 2.01 2.23 2.41 2.57 2.67 2.67 2.81 2.86 2.87 2.78 2.77 3.03 3.22 3.44 3.65 3.61
1.14 1.17 1.21 1.26 1.39 1.24 0.97 1.05 1.13 1.10 1.25 1.36 1.47 1.61 1.66 1.61 1.61 1.47 1.42 1.42 1.36 1.28 1.21 1.23 1.30 1.44 1.55 1.65 1.85 2.25 2.39 2.45 2.53 2.65 2.70 2.81 2.85 2.89 2.95 3.15 3.30 3.50 3.61 3.56
1.20 1.16 1.29 1.44 1.50 1.38 1.30 1.30 1.34 1.34 1.39 1.41 1.43 1.53 1.61 1.64 1.72 1.64 1.49 1.35 1.24 1.18 1.16 1.21 1.29 1.40 1.48 1.45 1.61 1.83 2.06 2.20 2.24 2.27 2.32 2.33 2.45 2.62 2.86 3.17 3.26 3.32 3.37 3.39
1.33 1.28 1.44 1.81 1.91 1.88 1.75 1.72 1.70 1.61 1.64 1.71 1.63 1.59 1.63 1.54 1.53 1.52 1.35 1.23 1.19 1.20 1.14 1.20 1.36 1.37 1.40 1.47 1.50 1.56 1.62 1.83 1.99 1.99 2.01 2.12 2.23 2.41 2.63 2.86 3.02 2.99 3.03 3.23
1.63 1.57 1.63 1.94 1.98 2.16 2.13 1.91 1.83 1.71 1.74 1.75 1.71 1.60 1.54 1.49 1.48 1.40 1.28 1.19 1.17 1.15 1.17 1.23 1.32 1.31 1.30 1.39 1.46 1.50 1.59 1.77 1.84 1.78 1.79 1.84 1.89 2.05 2.23 2.39 2.53 2.55 2.33 2.40